RH
56 43 33 39 67 56 66 31 22 27 31 24 26 30 33 35 45 72 45 49 46 46 56 57 74 71 72 74 76 74 70 69 77 74 75 74 72 75 75 75 75 74 74 75 72 74 74 74 74
32 33 36 43 79 64 43 32 30 27 24 25 29 33 34 43 34 43 50 47 38 40 50 50 76 72 70 71 71 70 71 74 78 75 72 74 75 74 74 75 74 74 75 72 73 73 73 73 74
37 28 38 38 94 60 40 32 28 27 24 26 32 31 30 38 32 40 38 42 45 63 48 55 71 71 70 70 70 71 72 75 74 72 74 74 74 74 72 70 71 71 73 72 72 72 70 71 71
34 36 37 86 41 32 30 28 26 26 26 26 31 39 29 29 31 31 42 40 39 49 47 59 68 68 68 69 69 66 75 76 72 75 76 73 72 71 73 72 74 74 73 73 73 73 72 71 70
33 36 71 56 46 34 27 24 22 25 28 29 34 37 40 31 29 30 41 36 33 35 38 46 70 69 66 66 73 72 72 75 73 75 75 75 72 72 73 73 75 73 72 73 72 72 71 70 71
41 30 63 58 45 36 31 26 23 26 27 28 30 36 39 29 29 26 24 30 34 40 35 42 64 70 73 65 70 70 70 74 73 74 75 75 75 74 74 73 73 72 70 72 71 73 71 73 73
37 65 53 82 55 47 38 29 34 26 24 26 25 38 36 30 26 24 23 27 29 40 46 48 51 66 66 69 74 77 77 73 73 71 70 73 74 74 75 71 72 70 70 70 69 71 73 73 73
34 39 58 51 58 65 38 35 33 30 29 22 24 36 40 31 26 24 24 28 36 30 35 54 45 54 85 80 83 84 75 79 78 76 74 77 74 75 72 76 72 70 69 69 67 66 68 70 72
29 69 70 69 62 72 40 38 31 23 25 26 26 26 28 28 26 26 28 27 37 42 39 83 50 69 84 88 84 84 74 73 79 80 74 80 56 51 62 71 70 68 68 66 64 63 65 66 69
30 59 45 34 52 63 44 46 33 27 28 31 30 27 28 28 28 28 28 28 30 33 43 56 56 49 76 62 95 92 89 88 80 75 80 53 51 49 42 59 66 65 64 63 61 62 64 64 35
29 47 35 38 38 41 56 43 33 28 32 29 34 32 30 30 30 27 26 25 26 28 33 42 57 86 88 72 85 80 90 82 82 74 74 57 43 39 38 47 46 45 60 40 48 47 41 31 26
41 39 35 40 42 40 53 50 37 37 57 24 27 28 29 31 27 25 23 24 26 30 39 54 46 45 59 69 98 95 62 66 62 56 50 52 36 35 36 35 36 39 36 36 33 29 36 35 37
33 37 37 38 45 54 48 52 42 38 28 24 26 28 29 29 28 24 23 24 26 30 35 42 42 49 45 50 60 87 48 47 36 40 41 37 34 39 35 41 37 33 30 32 35 32 34 35 31
29 35 38 37 46 54 63 64 45 38 27 25 27 29 29 28 27 26 26 28 29 31 33 34 40 49 43 51 48 44 61 40 36 35 40 44 36 59 37 38 33 31 30 29 32 37 32 28 26
30 39 37 38 42 61 72 72 55 46 30 28 26 29 28 27 26 29 27 28 28 30 34 38 38 39 47 51 47 40 34 36 36 37 49 46 50 53 49 39 45 32 41 42 38 38 31 25 25
37 39 77 42 41 52 64 78 80 47 37 33 28 32 30 30 27 29 29 27 28 32 39 40 30 38 42 45 45 36 46 30 30 33 41 46 50 48 45 42 53 35 36 30 30 30 27 26 25
29 57 47 46 36 45 52 81 58 55 48 42 29 32 32 35 33 31 28 28 29 33 42 42 37 40 43 50 46 44 42 36 31 33 43 48 47 48 46 57 43 48 31 35 34 29 34 28 26
84 36 28 53 40 38 49 53 55 62 44 64 41 32 33 34 33 31 30 30 32 35 42 45 40 48 50 50 61 56 40 35 32 31 39 48 44 48 49 40 46 47 32 31 47 51 33 36 27
25 43 24 28 33 36 38 41 48 54 47 49 42 33 30 35 34 33 29 32 32 41 44 48 48 57 49 46 46 62 48 45 34 34 48 49 46 50 52 38 45 45 49 56 44 42 46 30 32
22 26 24 24 30 33 35 42 44 50 49 44 48 42 33 27 44 34 32 34 35 42 44 51 54 60 55 45 47 65 44 36 39 38 48 48 48 50 48 55 46 52 42 51 50 54 45 32 33
16 19 19 20 23 27 30 39 38 47 45 42 37 35 31 36 46 34 38 36 38 48 45 52 57 60 59 54 46 48 45 50 38 39 42 46 48 47 53 54 54 56 52 43 52 50 57 63 36
14 12 16 18 23 65 49 85 45 35 40 41 37 34 31 36 35 45 33 32 34 42 41 50 57 60 58 59 56 64 48 44 36 45 40 46 50 47 47 52 54 59 49 62 49 45 57 58 48
12 14 13 14 18 40 49 54 86 38 39 37 32 29 30 31 30 30 37 36 30 38 42 44 58 65 62 64 64 53 58 42 62 33 55 57 60 50 45 51 55 60 50 53 60 55 61 47 45
8 12 15 15 15 27 17 19 41 32 27 31 29 27 28 38 37 35 33 39 44 40 35 41 58 68 65 63 64 65 66 61 66 49 49 41 41 46 52 48 55 58 55 54 52 59 59 61 59
8 12 19 20 18 22 22 22 23 26 19 20 25 28 28 26 31 34 34 36 36 36 37 39 55 65 63 59 62 61 62 62 60 79 44 45 34 34 59 59 57 51 61 55 55 61 64 59 54
8 10 14 40 32 31 22 23 20 18 16 20 24 27 34 34 28 28 32 34 37 38 37 39 52 62 62 59 65 70 66 50 50 54 56 38 34 32 64 54 50 52 58 58 56 51 48 55 50
8 12 8 18 19 23 31 18 18 17 16 21 24 29 30 32 33 32 31 33 40 37 40 43 50 58 58 53 59 65 64 62 51 63 54 56 54 46 48 67 50 48 62 51 58 50 52 54 57
10 9 12 12 33 33 19 18 21 22 20 19 23 26 26 31 35 34 32 33 36 35 37 41 45 53 53 50 52 52 55 59 56 64 70 63 70 56 57 59 50 51 59 53 58 55 56 59 50
10 11 11 10 12 18 20 20 14 17 20 20 22 23 25 29 32 34 37 34 35 35 41 41 46 56 50 48 55 53 51 50 54 52 52 57 55 64 52 58 56 67 62 60 65 64 63 82 62
10 10 9 12 20 14 14 21 15 15 16 18 25 27 29 30 32 35 36 39 42 40 44 48 42 42 46 50 60 56 60 51 47 53 52 58 63 55 58 57 60 58 56 58 63 60 50 54 56
Wind_Speed
10 13 8 6 5 5 6 11 13 9 9 14 7 12 16 15 13 8 12 16 20 15 13 12 10 11 11 10 9 9 9 8 7 10 9 9 10 12 14 13 14 14 15 15 14 15 14 14 14
12 4 7 7 1 5 8 10 8 14 9 12 12 10 15 19 17 17 13 11 15 18 13 12 11 11 11 12 11 11 13 5 7 10 10 9 10 12 13 13 14 14 14 15 15 14 14 13 13
13 9 10 6 2 4 11 10 12 10 8 7 7 9 9 13 10 11 21 15 15 11 12 13 12 12 12 12 11 12 12 8 8 11 9 10 10 12 13 13 13 14 13 13 15 14 14 13 12
7 6 7 5 7 15 14 14 11 10 6 8 9 12 18 9 11 19 19 15 16 16 11 14 13 13 12 12 12 12 11 9 8 10 9 10 11 12 12 12 14 15 14 14 13 11 9 8 8
7 7 5 1 8 13 11 9 8 10 9 7 3 18 14 15 17 18 17 15 17 16 15 14 13 12 12 12 10 10 11 9 8 9 10 10 11 11 12 12 14 13 13 11 10 9 6 6 8
8 6 2 5 8 11 10 4 14 11 10 8 17 16 14 16 15 12 16 19 18 12 16 14 14 12 11 11 12 10 10 10 9 10 10 9 10 11 12 13 13 13 12 11 10 8 8 10 9
11 3 7 2 7 11 11 3 5 8 12 14 12 14 13 14 15 13 11 18 17 20 15 13 14 11 14 14 13 12 12 11 12 12 13 13 11 9 12 12 14 12 11 10 9 9 10 9 8
5 3 5 6 3 6 7 7 3 5 14 11 11 8 16 17 16 15 11 17 13 12 20 15 18 13 9 10 17 9 9 13 13 5 10 14 12 11 13 12 10 10 9 8 7 7 7 7 6
7 3 7 6 6 5 5 10 5 13 13 7 3 18 19 18 16 15 14 12 17 10 10 15 16 14 12 13 11 8 7 11 11 7 9 13 10 11 12 11 9 8 7 6 5 5 6 7 9
9 5 9 9 9 10 6 3 10 12 13 10 12 19 20 17 15 15 14 13 13 15 8 11 9 16 11 11 11 9 8 5 6 7 9 11 7 6 12 10 8 7 7 7 7 9 10 12 9
3 4 4 9 7 13 1 6 4 10 6 14 15 19 19 17 14 14 13 14 14 11 13 12 8 7 20 13 8 4 3 6 6 7 6 3 6 8 9 7 7 7 11 9 9 8 8 1 2
2 5 4 9 10 10 10 3 3 9 7 12 18 17 17 17 15 14 13 13 14 10 10 9 8 3 12 17 12 10 10 9 8 6 6 4 5 8 9 6 7 7 7 4 7 3 5 4 2
6 7 9 12 11 9 5 4 4 6 6 8 18 17 17 15 12 12 12 11 13 12 13 16 10 3 2 3 15 10 8 5 11 9 8 7 7 4 5 5 6 3 7 5 2 4 2 4 6
7 10 10 9 11 6 4 2 5 5 9 13 17 17 15 15 15 12 11 12 13 13 11 13 11 8 5 7 4 5 3 8 8 9 4 2 7 3 9 8 9 6 3 4 5 2 4 3 7
12 11 12 11 10 6 9 8 4 10 12 14 16 15 12 12 13 13 12 13 13 12 11 13 11 10 6 7 5 4 7 8 7 9 10 4 6 4 3 4 3 5 6 2 3 6 3 4 5
9 10 4 12 13 14 9 10 3 11 4 11 15 12 13 13 15 13 12 13 13 11 12 12 11 13 9 9 5 3 4 6 7 10 8 6 4 2 1 5 2 3 6 6 4 5 2 1 2
8 7 8 11 9 14 9 3 8 4 7 9 15 16 12 11 13 13 13 12 14 13 12 11 7 11 10 8 7 5 5 3 5 7 7 7 5 2 3 1 8 7 3 2 4 6 4 4 3
5 11 5 13 11 16 16 11 14 10 15 8 12 16 15 14 14 14 15 12 14 12 12 10 9 10 9 8 3 2 7 5 5 5 7 8 5 4 6 6 4 8 2 3 5 6 3 6 2
12 14 1 7 11 11 12 14 16 15 15 12 6 12 19 16 11 13 13 13 15 12 12 12 11 11 8 9 9 5 6 5 7 5 8 5 5 5 3 2 5 4 3 5 1 5 5 3 2
9 5 4 5 8 10 8 12 18 18 15 14 13 12 12 17 10 15 14 14 15 17 13 13 12 12 10 8 7 2 5 7 7 5 8 7 6 5 4 2 1 3 2 3 3 5 5 3 3
12 8 3 3 6 10 5 14 16 20 16 14 15 15 11 9 5 16 16 12 13 16 16 14 13 13 12 10 7 4 4 4 6 7 7 8 6 6 5 4 3 1 5 4 4 4 6 4 4
19 12 5 4 11 3 19 2 10 17 15 19 20 20 17 13 14 11 9 16 15 12 15 15 14 14 13 11 10 8 8 8 7 5 7 8 8 5 6 5 4 3 5 6 3 5 7 5 4
15 9 3 6 11 13 14 5 3 13 17 17 16 19 18 20 20 17 13 11 15 13 14 15 15 14 13 12 10 10 9 8 3 8 8 5 8 7 7 5 5 4 6 3 5 2 4 5 7
16 7 7 10 15 10 10 7 15 10 9 14 20 14 15 17 14 17 16 10 9 13 15 16 16 15 14 15 14 11 11 9 2 7 6 9 8 9 7 5 5 4 4 3 5 5 5 5 6
17 13 12 11 12 8 4 7 10 15 3 7 9 6 5 8 18 18 21 18 15 15 16 15 17 16 16 16 16 15 13 10 8 1 8 8 9 8 12 9 6 7 7 4 4 3 6 4 6
17 19 13 6 5 10 5 6 7 10 8 7 7 7 6 6 9 14 18 18 18 15 16 17 18 16 16 16 15 13 13 10 9 10 7 9 7 6 12 8 5 8 7 6 5 6 6 7 6
16 19 22 11 21 13 12 4 12 12 9 11 9 7 6 4 5 10 13 15 13 17 17 16 17 16 16 17 14 14 13 13 12 9 10 6 10 2 8 5 8 6 5 6 6 7 6 6 7
13 11 13 10 10 11 7 7 6 10 10 10 9 8 7 4 3 4 10 15 16 18 14 16 17 18 17 16 14 13 14 13 13 8 7 8 3 7 1 5 7 8 6 4 5 9 9 7 6
12 12 12 12 12 9 9 6 9 11 13 9 8 5 6 4 5 3 4 10 14 17 15 16 14 15 17 17 14 14 14 15 14 12 10 10 10 10 5 5 5 5 7 9 9 8 9 1 8
12 16 17 9 13 9 11 6 6 7 6 8 9 6 5 2 2 0 5 6 8 13 14 15 16 17 17 15 12 13 11 14 16 14 14 11 12 10 10 8 9 10 10 8 6 10 9 8 9
Wind_Direction
196 212 231 252 245 173 321 102 89 121 93 71 55 54 68 30 37 76 125 118 133 135 131 124 112 106 101 100 95 96 94 109 117 104 118 109 113 110 110 109 105 107 106 106 101 95 95 93 93
230 226 241 281 55 328 73 85 85 60 90 92 62 2 74 71 85 115 100 122 136 132 143 131 119 109 107 103 102 102 84 66 116 119 117 109 118 112 112 116 113 109 112 112 107 105 100 96 93
257 248 266 232 278 132 97 95 82 89 119 118 99 26 38 100 63 98 115 131 99 76 101 115 120 118 117 113 111 108 119 142 126 120 114 121 123 117 109 111 113 113 112 109 101 97 101 99 90
219 206 244 24 103 72 101 99 116 118 102 92 134 92 79 54 103 101 104 129 134 129 125 125 124 128 125 117 118 111 101 102 118 122 127 126 111 112 110 111 115 110 104 104 102 105 101 84 90
244 259 267 303 82 87 80 101 104 75 94 130 121 110 94 89 106 121 140 161 122 111 107 125 123 112 109 108 100 118 101 99 115 125 129 126 127 117 117 119 111 107 107 106 100 94 98 103 96
260 255 217 194 141 117 96 75 75 81 79 118 108 113 102 119 124 126 129 112 100 99 105 120 115 108 110 98 87 95 102 104 101 104 117 119 115 122 123 122 109 115 111 106 99 92 102 106 112
259 353 275 91 185 124 113 65 37 116 117 113 132 120 129 139 129 126 122 109 116 121 118 121 126 115 108 101 97 86 80 82 86 98 105 97 96 126 126 120 125 115 114 110 103 99 108 115 123
286 217 322 28 136 86 110 94 293 114 81 108 75 144 152 135 141 126 135 120 119 134 132 154 138 124 105 103 96 72 79 72 79 122 144 144 144 135 128 132 118 125 121 120 114 109 123 130 139
239 350 197 192 155 111 212 153 94 100 142 99 134 137 135 143 146 146 133 130 123 144 160 134 148 133 129 121 124 128 152 143 152 163 176 161 149 152 146 93 129 128 131 140 136 159 170 161 153
268 324 25 60 117 154 229 185 145 146 117 115 95 107 132 153 156 150 160 144 140 141 103 76 152 143 128 149 149 160 169 152 153 178 204 207 135 88 107 119 146 146 165 171 177 212 209 210 164
16 20 73 90 102 139 138 120 214 149 130 126 134 140 148 155 168 158 167 153 151 157 148 130 94 232 163 147 130 173 161 161 164 212 237 86 117 145 138 146 163 165 195 182 193 200 223 233 53
232 62 69 111 128 152 143 282 155 53 202 108 133 148 153 165 177 159 160 156 135 136 132 105 163 111 185 131 140 211 170 180 172 138 139 159 170 163 163 165 131 183 176 110 210 121 77 193 257
102 105 109 127 105 89 132 148 66 163 122 131 138 152 163 169 163 162 148 140 138 155 150 151 131 124 70 294 155 164 162 177 105 162 161 181 138 114 115 155 172 138 170 144 222 128 170 170 171
108 122 131 149 135 114 104 9 253 199 151 140 150 158 167 164 168 147 150 154 153 158 156 120 144 141 148 77 98 145 141 130 159 127 135 214 136 193 146 178 166 165 182 156 125 7 181 217 118
151 153 152 145 138 115 84 348 237 272 158 157 164 156 159 157 147 156 155 159 165 163 158 134 152 150 149 141 163 202 162 140 144 120 164 147 131 277 143 104 215 127 67 73 127 220 223 130 122
207 127 290 132 143 143 132 211 100 283 142 175 166 149 160 158 157 157 158 167 156 163 153 156 176 143 153 159 185 226 134 139 149 146 152 161 76 171 175 189 109 113 184 183 153 244 167 92 145
178 208 163 135 172 144 167 133 215 200 216 220 171 163 159 178 161 162 161 163 152 149 161 168 176 154 159 147 161 233 94 167 155 163 150 159 169 160 313 152 95 242 183 96 220 174 309 138 272
69 320 136 152 160 171 193 148 170 193 220 165 255 162 174 180 188 168 166 163 150 162 163 170 175 148 166 161 238 245 174 186 168 181 117 148 153 131 276 85 100 274 205 187 22 5 60 324 301
157 145 161 101 136 188 202 171 172 180 225 169 248 181 179 187 186 171 181 162 153 154 182 171 177 155 181 176 186 202 193 173 184 183 115 151 146 141 227 148 178 265 344 8 333 211 185 197 118
164 302 67 101 149 238 187 169 166 182 200 194 197 229 203 190 145 173 181 178 172 167 179 178 179 167 197 195 219 151 231 183 190 167 153 202 182 173 185 323 153 65 323 183 271 309 286 232 124
252 194 185 329 176 227 224 181 165 171 193 202 197 230 192 213 189 191 175 188 184 166 180 182 184 180 197 205 203 172 242 271 194 176 179 188 201 200 235 178 284 212 281 188 196 241 302 15 151
251 224 158 236 261 108 317 198 250 164 187 188 194 201 209 197 198 215 224 184 195 178 175 178 190 183 195 208 188 181 210 203 193 208 206 166 194 214 193 211 209 228 301 2 235 227 304 316 319
258 210 236 267 259 154 248 116 205 213 187 195 209 201 196 186 204 207 212 224 186 186 174 181 187 192 197 195 235 181 229 202 244 214 153 231 153 219 204 201 209 224 239 173 291 315 240 297 284
244 220 226 225 246 258 200 262 197 166 185 175 177 210 201 179 203 182 209 224 244 178 178 177 182 193 197 197 209 213 193 249 188 251 169 177 194 181 215 205 215 227 264 231 245 240 251 275 330
223 220 226 217 219 242 120 273 129 155 152 129 144 167 204 222 183 184 197 205 221 206 188 181 178 194 194 200 202 209 217 206 240 275 241 209 202 199 159 184 201 223 212 262 260 233 294 252 265
211 228 244 206 338 175 162 237 157 127 117 117 130 129 150 206 213 210 195 201 195 217 192 192 175 193 194 199 206 205 203 212 216 186 258 235 245 200 128 166 214 199 247 204 220 246 238 232 221
189 229 259 179 238 222 212 200 157 155 164 151 157 154 165 184 245 220 201 188 183 213 193 197 176 192 196 198 199 205 204 222 210 217 215 240 263 215 147 64 189 230 213 232 263 235 242 244 228
276 221 239 215 254 258 303 172 115 152 175 165 164 180 141 142 169 237 192 198 201 208 195 195 189 189 197 202 195 199 203 205 225 204 178 245 339 287 299 207 205 218 228 234 225 262 228 226 261
201 236 258 294 289 298 230 219 161 166 146 173 182 134 141 144 137 158 211 217 198 197 185 197 201 182 200 200 194 199 202 202 210 215 214 222 249 210 211 263 280 285 239 207 221 255 284 25 236
273 208 227 227 228 265 306 78 87 102 132 170 130 148 128 77 74 250 191 212 242 209 200 205 210 194 199 202 188 196 195 209 199 213 215 213 217 227 241 215 224 233 247 240 244 238 271 247 245